Location: *
(49.9853°N, 3.5569°E)
Time: 17:47:49
(UTC+00:00)

Lacrosse 5 rocket - Pass Details

Date: 22 September 2019
Orbit: 458 x 639 km, 57.0° (Epoch: 22 October)

Event Time Altitude Azimuth Distance (km) Brightness Sun altitude
Rises 18:29:09 0° 199° (SSW) 2,476 4.8 -7.9°
Reaches altitude 10° 18:31:31 10° 184° (S) 1,618 3.7 -8.3°
Maximum altitude 18:34:26 23° 130° (SE) 1,053 2.3 -8.8°
Enters shadow 18:37:17 11° 78° (ENE) 1,626 3.1 -9.2°
